• In India
  • List of Countries
  • For 7 days
  • Water Temperature
  • Satellite Maps
  • Weather Map
  • Weather Widgets
  • user-avatar
    Login

    Hourly Weather Popeli

    Today, 10 December, Monday

    Time Temperature Precipitation Wind Pressure Humidity
    00:00 0°C° 0 mm 4 mps 716 mmHg 83%
    01:00 0°C° 0 mm 4 mps 716 mmHg 83%
    02:00 +2°C° 0 mm 2 mps 716 mmHg 85%
    03:00 +1°C° 0.1 mm 3 mps 716 mmHg 85%
    04:00 +1°C° 0.1 mm 3 mps 716 mmHg 85%
    05:00 +2°C° 0.1 mm 3 mps 717 mmHg 84%
    06:00 +1°C° 0.3 mm 3 mps 717 mmHg 85%
    07:00 +1°C° 0.3 mm 3 mps 717 mmHg 86%
    08:00 +1°C° 0 mm 3 mps 717 mmHg 86%
    09:00 +1°C° 0.3 mm 3 mps 717 mmHg 85%
    10:00 +1°C° 0.3 mm 4 mps 718 mmHg 83%
    11:00 +1°C° 0.3 mm 4 mps 718 mmHg 82%
    12:00 +1°C° 0.1 mm 4 mps 719 mmHg 81%
    13:00 +1°C° 0.1 mm 4 mps 719 mmHg 80%
    14:00 +1°C° 0.1 mm 4 mps 719 mmHg 80%
    15:00 +1°C° 0.1 mm 4 mps 720 mmHg 81%
    16:00 +1°C° 0.1 mm 3 mps 720 mmHg 83%
    17:00 +1°C° 0.1 mm 3 mps 720 mmHg 85%
    18:00 0°C° 0.1 mm 3 mps 720 mmHg 86%
    19:00 0°C° 0.1 mm 3 mps 721 mmHg 87%
    20:00 -1°C° 0.1 mm 3 mps 721 mmHg 88%
    21:00 -1°C° 0 mm 3 mps 721 mmHg 89%
    22:00 -1°C° 0 mm 3 mps 721 mmHg 90%
    23:00 -2°C° 0 mm 3 mps 721 mmHg 90%

    Tomorrow, 11 December, Tuesday

    Time Temperature Precipitation Wind Pressure Humidity
    00:00 -2°C° 0 mm 2 mps 722 mmHg 91%
    01:00 -2°C° 0 mm 2 mps 722 mmHg 91%
    02:00 -2°C° 0 mm 2 mps 722 mmHg 91%
    03:00 -2°C° 0 mm 2 mps 722 mmHg 91%
    04:00 -2°C° 0 mm 2 mps 722 mmHg 91%
    05:00 -2°C° 0 mm 2 mps 722 mmHg 91%
    06:00 -2°C° 0 mm 2 mps 722 mmHg 90%
    07:00 -2°C° 0 mm 2 mps 723 mmHg 90%
    08:00 0°C° 0 mm 1 mps 723 mmHg 89%
    09:00 +1°C° 0 mm 1 mps 723 mmHg 84%
    10:00 +1°C° 0 mm 1 mps 723 mmHg 80%
    11:00 +2°C° 0 mm 1 mps 724 mmHg 75%
    12:00 +3°C° 0 mm 1 mps 723 mmHg 73%
    13:00 +2°C° 0 mm 2 mps 723 mmHg 70%
    14:00 +2°C° 0 mm 2 mps 723 mmHg 68%
    15:00 +2°C° 0 mm 1 mps 723 mmHg 72%
    16:00 +1°C° 0 mm 1 mps 723 mmHg 77%
    17:00 0°C° 0 mm 1 mps 723 mmHg 82%
    18:00 0°C° 0 mm 1 mps 724 mmHg 83%
    19:00 0°C° 0 mm 1 mps 724 mmHg 84%
    20:00 -2°C° 0 mm 2 mps 724 mmHg 84%
    21:00 -2°C° 0 mm 2 mps 724 mmHg 84%
    22:00 -2°C° 0 mm 2 mps 724 mmHg 84%
    23:00 -2°C° 0 mm 2 mps 724 mmHg 84%

    Day after tomorrow, 12 December, Wednesday

    Time Temperature Precipitation Wind Pressure Humidity
    00:00 -1°C° 0 mm 1 mps 724 mmHg 84%
    01:00 -1°C° 0 mm 1 mps 724 mmHg 85%
    02:00 -1°C° 0 mm 1 mps 724 mmHg 85%
    03:00 -1°C° 0 mm 1 mps 724 mmHg 85%
    04:00 -1°C° 0 mm 1 mps 724 mmHg 85%
    05:00 -2°C° 0 mm 0 mps 724 mmHg 86%
    06:00 -2°C° 0 mm 0 mps 724 mmHg 86%
    07:00 -2°C° 0 mm 0 mps 725 mmHg 86%
    08:00 -2°C° 0 mm 0 mps 725 mmHg 85%
    09:00 -1°C° 0 mm 0 mps 725 mmHg 83%
    10:00 +1°C° 0 mm 1 mps 725 mmHg 80%
    11:00 +1°C° 0 mm 1 mps 725 mmHg 77%
    12:00 +1°C° 0 mm 1 mps 725 mmHg 76%
    13:00 +1°C° 0 mm 2 mps 725 mmHg 76%
    14:00 +1°C° 0 mm 2 mps 725 mmHg 75%
    15:00 -1°C° 0 mm 2 mps 725 mmHg 79%
    16:00 -2°C° 0 mm 2 mps 725 mmHg 83%
    17:00 -2°C° 0 mm 2 mps 725 mmHg 87%
    18:00 -2°C° 0 mm 2 mps 725 mmHg 88%
    19:00 -4°C° 0 mm 3 mps 725 mmHg 89%
    20:00 -4°C° 0 mm 3 mps 725 mmHg 91%
    21:00 -4°C° 0.1 mm 3 mps 725 mmHg 90%
    22:00 -4°C° 0.1 mm 4 mps 725 mmHg 89%
    23:00 -4°C° 0.1 mm 4 mps 725 mmHg 88%

    13 December, Thursday

    Time Temperature Precipitation Wind Pressure Humidity
    00:00 -4°C° 0.2 mm 4 mps 725 mmHg 88%
    01:00 -4°C° 0.2 mm 4 mps 725 mmHg 88%
    02:00 -5°C° 0.2 mm 5 mps 725 mmHg 88%
    03:00 -5°C° 0.3 mm 5 mps 725 mmHg 89%
    04:00 -5°C° 0.3 mm 5 mps 725 mmHg 89%
    05:00 -5°C° 0.3 mm 5 mps 724 mmHg 89%
    06:00 -5°C° 0.4 mm 5 mps 724 mmHg 90%
    07:00 -4°C° 0.4 mm 4 mps 724 mmHg 90%
    08:00 -4°C° 0.4 mm 4 mps 724 mmHg 90%
    09:00 -4°C° 0.4 mm 4 mps 724 mmHg 89%
    10:00 -4°C° 0.4 mm 5 mps 724 mmHg 88%
    11:00 -4°C° 0.4 mm 5 mps 724 mmHg 88%
    12:00 -4°C° 0.3 mm 5 mps 724 mmHg 87%
    13:00 -3°C° 0.3 mm 4 mps 724 mmHg 86%
    14:00 -3°C° 0.3 mm 4 mps 724 mmHg 86%
    15:00 -3°C° 0.2 mm 4 mps 724 mmHg 87%
    16:00 -3°C° 0.2 mm 4 mps 724 mmHg 89%
    17:00 -2°C° 0.2 mm 3 mps 725 mmHg 91%
    18:00 -4°C° 0.2 mm 3 mps 725 mmHg 91%
    19:00 -4°C° 0.2 mm 3 mps 725 mmHg 91%
    20:00 -4°C° 0.2 mm 3 mps 726 mmHg 91%
    21:00 -4°C° 0.2 mm 3 mps 726 mmHg 91%
    22:00 -4°C° 0.2 mm 3 mps 726 mmHg 91%
    23:00 -4°C° 0.2 mm 3 mps 727 mmHg 91%

    14 December, Friday

    Time Temperature Precipitation Wind Pressure Humidity
    00:00 -4°C° 0.1 mm 3 mps 727 mmHg 91%
    01:00 -4°C° 0.1 mm 3 mps 727 mmHg 92%
    02:00 -3°C° 0.1 mm 2 mps 728 mmHg 92%
    03:00 -3°C° 0 mm 2 mps 728 mmHg 92%
    04:00 -3°C° 0 mm 2 mps 728 mmHg 92%
    05:00 -3°C° 0 mm 2 mps 728 mmHg 93%
    06:00 -3°C° 0.1 mm 2 mps 729 mmHg 93%
    07:00 -3°C° 0.1 mm 2 mps 729 mmHg 93%
    08:00 -3°C° 0.1 mm 2 mps 730 mmHg 93%
    09:00 -3°C° 0 mm 2 mps 730 mmHg 91%
    10:00 -2°C° 0 mm 2 mps 731 mmHg 89%
    11:00 -2°C° 0 mm 2 mps 732 mmHg 87%
    12:00 -1°C° 0 mm 2 mps 732 mmHg 86%
    13:00 -1°C° 0 mm 2 mps 732 mmHg 86%
    14:00 +1°C° 0 mm 1 mps 732 mmHg 85%
    15:00 0°C° 0 mm 1 mps 733 mmHg 88%
    16:00 0°C° 0 mm 1 mps 733 mmHg 90%
    17:00 -1°C° 0 mm 1 mps 733 mmHg 93%
    18:00 -1°C° 0 mm 1 mps 734 mmHg 93%
    19:00 -1°C° 0 mm 1 mps 734 mmHg 94%
    20:00 -2°C° 0 mm 1 mps 734 mmHg 94%
    21:00 -2°C° 0 mm 1 mps 735 mmHg 94%
    22:00 -3°C° 0 mm 0 mps 735 mmHg 94%
    23:00 -3°C° 0 mm 0 mps 735 mmHg 95%

    15 December, Saturday

    Time Temperature Precipitation Wind Pressure Humidity
    00:00 -4°C° 0 mm 0 mps 735 mmHg 94%
    01:00 -4°C° 0 mm 0 mps 735 mmHg 94%
    02:00 -4°C° 0 mm 0 mps 736 mmHg 94%
    03:00 -4°C° 0 mm 0 mps 736 mmHg 94%
    04:00 -4°C° 0 mm 0 mps 736 mmHg 94%
    05:00 -4°C° 0 mm 0 mps 736 mmHg 94%
    06:00 -4°C° 0 mm 0 mps 736 mmHg 94%
    07:00 -4°C° 0 mm 0 mps 737 mmHg 94%
    08:00 -4°C° 0 mm 0 mps 737 mmHg 94%
    09:00 -3°C° 0 mm 0 mps 738 mmHg 92%
    10:00 -2°C° 0 mm 0 mps 738 mmHg 90%
    11:00 -1°C° 0 mm 1 mps 738 mmHg 88%
    12:00 0°C° 0 mm 1 mps 738 mmHg 87%
    13:00 0°C° 0 mm 1 mps 738 mmHg 86%
    14:00 0°C° 0 mm 1 mps 738 mmHg 85%
    15:00 0°C° 0 mm 1 mps 738 mmHg 88%
    16:00 -1°C° 0 mm 1 mps 738 mmHg 91%
    17:00 -2°C° 0 mm 1 mps 738 mmHg 94%
    18:00 -2°C° 0 mm 1 mps 738 mmHg 94%
    19:00 -2°C° 0 mm 1 mps 738 mmHg 95%
    20:00 -2°C° 0 mm 1 mps 739 mmHg 96%
    21:00 -3°C° 0 mm 1 mps 739 mmHg 96%
    22:00 -3°C° 0 mm 1 mps 739 mmHg 95%
    23:00 -3°C° 0 mm 1 mps 739 mmHg 95%
    Show more